Time,TemperatureF,DewpointF,PressureIn,WindDirection,WindDirectionDegrees,WindSpeedMPH,WindSpeedGustMPH,Humidity,HourlyPrecipIn,Conditions,Clouds,dailyrainin,SoftwareType,DateUTC
2013-05-21 00:03:00,63.0,60.0,29.96,WNW,288,0.0,0.0,91,0.00,,,0.00,,2013-05-21 04:03:00,
2013-05-21 00:13:00,63.0,60.0,29.96,WNW,288,0.0,0.0,91,0.00,,,0.00,,2013-05-21 04:13:00,
2013-05-21 00:23:00,63.0,61.0,29.96,WNW,288,0.0,0.0,92,0.00,,,0.00,,2013-05-21 04:23:00,
2013-05-21 00:33:00,62.0,60.0,29.96,WNW,288,0.0,0.0,92,0.00,,,0.00,,2013-05-21 04:33:00,
2013-05-21 00:42:00,62.0,60.0,29.96,WNW,288,0.0,0.0,92,0.00,,,0.00,,2013-05-21 04:42:00,
2013-05-21 00:52:00,62.0,60.0,29.96,WNW,288,0.0,0.0,92,0.00,,,0.00,,2013-05-21 04:52:00,
2013-05-21 01:02:00,61.0,59.0,29.96,WNW,288,0.0,0.0,93,0.00,,,0.00,,2013-05-21 05:02:00,
2013-05-21 01:12:00,61.0,59.0,29.96,WNW,288,0.0,0.0,93,0.00,,,0.00,,2013-05-21 05:12:00,
2013-05-21 01:22:00,61.0,59.0,29.95,WNW,288,0.0,0.0,93,0.00,,,0.00,,2013-05-21 05:22:00,
2013-05-21 01:32:00,60.0,58.0,29.95,WNW,285,0.0,0.0,93,0.00,,,0.00,,2013-05-21 05:32:00,
2013-05-21 01:42:00,60.0,58.0,29.95,WNW,285,0.0,0.0,94,0.00,,,0.00,,2013-05-21 05:42:00,
2013-05-21 01:51:00,60.0,58.0,29.95,WNW,285,0.0,0.0,94,0.00,,,0.00,,2013-05-21 05:51:00,
2013-05-21 02:02:00,59.0,57.0,29.95,WNW,285,0.0,0.0,94,0.00,,,0.00,,2013-05-21 06:02:00,
2013-05-21 02:12:00,59.0,57.0,29.95,WNW,285,0.0,0.0,94,0.00,,,0.00,,2013-05-21 06:12:00,
2013-05-21 02:21:00,59.0,57.0,29.94,WNW,285,0.0,0.0,94,0.00,,,0.00,,2013-05-21 06:21:00,
2013-05-21 02:32:00,59.0,57.0,29.93,West,273,0.0,0.0,94,0.00,,,0.00,,2013-05-21 06:32:00,
2013-05-21 02:42:00,59.0,57.0,29.93,West,273,0.0,0.0,94,0.00,,,0.00,,2013-05-21 06:42:00,
2013-05-21 02:52:00,58.0,56.0,29.91,West,273,0.0,0.0,94,0.00,,,0.00,,2013-05-21 06:52:00,
2013-05-21 03:01:00,58.0,56.0,29.91,West,273,0.0,0.0,94,0.00,,,0.00,,2013-05-21 07:01:00,
2013-05-21 03:11:00,58.0,56.0,29.91,West,273,0.0,0.0,94,0.00,,,0.00,,2013-05-21 07:11:00,
2013-05-21 03:22:00,58.0,57.0,29.92,West,273,0.0,0.0,95,0.00,,,0.00,,2013-05-21 07:22:00,
2013-05-21 03:32:00,58.0,57.0,29.92,West,273,0.0,0.0,95,0.00,,,0.00,,2013-05-21 07:32:00,
2013-05-21 03:42:00,58.0,57.0,29.92,West,273,0.0,0.0,95,0.00,,,0.00,,2013-05-21 07:42:00,
2013-05-21 03:52:00,58.0,57.0,29.93,West,273,0.0,0.0,95,0.00,,,0.00,,2013-05-21 07:52:00,
2013-05-21 04:02:00,59.0,58.0,29.93,West,274,0.0,1.0,95,0.00,,,0.00,,2013-05-21 08:02:00,
2013-05-21 04:11:00,59.0,58.0,29.93,West,274,0.0,1.0,95,0.00,,,0.00,,2013-05-21 08:11:00,
2013-05-21 04:21:00,60.0,59.0,29.93,ESE,111,1.0,2.0,95,0.10,,,0.10,,2013-05-21 08:21:00,
2013-05-21 04:31:00,60.0,59.0,29.91,NNW,344,0.0,2.0,95,0.16,,,0.16,,2013-05-21 08:31:00,
2013-05-21 04:42:00,61.0,60.0,29.91,WSW,246,0.0,2.0,95,0.17,,,0.17,,2013-05-21 08:42:00,
2013-05-21 04:52:00,61.0,60.0,29.91,WSW,246,0.0,2.0,95,0.17,,,0.17,,2013-05-21 08:52:00,
2013-05-21 05:01:00,61.0,60.0,29.92,WSW,246,0.0,1.0,95,0.17,,,0.17,,2013-05-21 09:01:00,
2013-05-21 05:11:00,61.0,60.0,29.92,WSW,246,0.0,1.0,95,0.17,,,0.17,,2013-05-21 09:11:00,
2013-05-21 05:21:00,60.0,59.0,29.91,WSW,238,0.0,0.0,95,0.05,,,0.17,,2013-05-21 09:21:00,
2013-05-21 05:33:00,60.0,59.0,29.92,WSW,238,0.0,0.0,95,0.00,,,0.17,,2013-05-21 09:33:00,
2013-05-21 05:42:00,60.0,59.0,29.92,WSW,238,0.0,0.0,95,0.00,,,0.17,,2013-05-21 09:42:00,
2013-05-21 05:52:00,60.0,59.0,29.91,SE,139,0.0,0.0,95,0.00,,,0.17,,2013-05-21 09:52:00,
2013-05-21 06:03:00,60.0,59.0,29.90,SE,139,0.0,0.0,95,0.00,,,0.17,,2013-05-21 10:03:00,
2013-05-21 06:12:00,60.0,59.0,29.90,SE,139,0.0,0.0,95,0.00,,,0.17,,2013-05-21 10:12:00,
2013-05-21 06:22:00,59.0,58.0,29.91,SSW,210,0.0,0.0,95,0.00,,,0.17,,2013-05-21 10:22:00,
2013-05-21 06:33:00,59.0,58.0,29.91,SSW,210,0.0,0.0,95,0.00,,,0.17,,2013-05-21 10:33:00,
2013-05-21 06:42:00,59.0,58.0,29.91,SSW,210,0.0,0.0,95,0.00,,,0.17,,2013-05-21 10:42:00,
2013-05-21 06:52:00,59.0,58.0,29.91,SSW,208,0.0,2.0,95,0.00,,,0.17,,2013-05-21 10:52:00,
2013-05-21 07:02:00,59.0,58.0,29.91,SSW,208,0.0,1.0,96,0.00,,,0.17,,2013-05-21 11:02:00,
2013-05-21 07:12:00,59.0,58.0,29.91,SSW,208,0.0,1.0,96,0.00,,,0.17,,2013-05-21 11:12:00,
2013-05-21 07:22:00,60.0,59.0,29.92,West,270,0.0,1.0,96,0.00,,,0.17,,2013-05-21 11:22:00,
2013-05-21 07:32:00,61.0,60.0,29.92,NW,319,0.0,1.0,95,0.00,,,0.17,,2013-05-21 11:32:00,
2013-05-21 07:42:00,61.0,60.0,29.92,NW,319,0.0,1.0,95,0.00,,,0.17,,2013-05-21 11:42:00,
2013-05-21 07:51:00,62.0,61.0,29.92,WNW,295,0.0,1.0,95,0.00,,,0.17,,2013-05-21 11:51:00,
2013-05-21 08:01:00,63.0,62.0,29.93,West,277,0.0,2.0,95,0.00,,,0.17,,2013-05-21 12:01:00,
2013-05-21 08:11:00,63.0,62.0,29.93,West,277,0.0,2.0,95,0.00,,,0.17,,2013-05-21 12:11:00,
2013-05-21 08:21:00,65.0,63.0,29.92,NW,314,0.0,2.0,94,0.00,,,0.17,,2013-05-21 12:21:00,
2013-05-21 08:32:00,66.0,64.0,29.92,NNW,340,0.0,2.0,93,0.00,,,0.17,,2013-05-21 12:32:00,
2013-05-21 08:42:00,66.0,64.0,29.92,NNW,340,0.0,2.0,93,0.00,,,0.17,,2013-05-21 12:42:00,
2013-05-21 08:51:00,67.0,65.0,29.92,East,82,0.0,2.0,92,0.00,,,0.17,,2013-05-21 12:51:00,
2013-05-21 09:01:00,69.0,66.0,29.93,NW,316,0.0,1.0,89,0.00,,,0.17,,2013-05-21 13:01:00,
2013-05-21 09:12:00,69.0,66.0,29.93,NW,316,0.0,1.0,89,0.00,,,0.17,,2013-05-21 13:12:00,
2013-05-21 09:22:00,71.0,67.0,29.93,NNW,328,1.0,2.0,87,0.00,,,0.17,,2013-05-21 13:22:00,
2013-05-21 09:32:00,72.0,68.0,29.93,SE,128,0.0,2.0,86,0.00,,,0.17,,2013-05-21 13:32:00,
2013-05-21 09:42:00,72.0,68.0,29.93,SE,128,0.0,2.0,86,0.00,,,0.17,,2013-05-21 13:42:00,
2013-05-21 09:52:00,72.0,68.0,29.93,WSW,257,0.0,3.0,86,0.00,,,0.17,,2013-05-21 13:52:00,
2013-05-21 10:02:00,71.0,67.0,29.92,West,271,0.0,1.0,86,0.00,,,0.17,,2013-05-21 14:02:00,
2013-05-21 10:11:00,71.0,67.0,29.92,West,271,0.0,1.0,86,0.00,,,0.17,,2013-05-21 14:11:00,
2013-05-21 10:21:00,72.0,67.0,29.90,ESE,108,0.0,2.0,85,0.00,,,0.17,,2013-05-21 14:21:00,
2013-05-21 10:32:00,73.0,66.0,29.91,WNW,300,1.0,3.0,80,0.00,,,0.17,,2013-05-21 14:32:00,
2013-05-21 10:42:00,73.0,66.0,29.91,WNW,300,1.0,3.0,80,0.00,,,0.17,,2013-05-21 14:42:00,
2013-05-21 10:51:00,75.0,68.0,29.91,SSE,152,0.0,3.0,80,0.00,,,0.17,,2013-05-21 14:51:00,
2013-05-21 11:01:00,76.0,67.0,29.90,WNW,285,1.0,5.0,74,0.00,,,0.17,,2013-05-21 15:01:00,
2013-05-21 11:11:00,76.0,67.0,29.90,WNW,285,1.0,5.0,74,0.00,,,0.17,,2013-05-21 15:11:00,
2013-05-21 11:21:00,76.0,67.0,29.91,WSW,251,2.0,7.0,73,0.00,,,0.17,,2013-05-21 15:21:00,
2013-05-21 11:33:00,77.0,66.0,29.90,West,266,2.0,6.0,69,0.00,,,0.17,,2013-05-21 15:33:00,
2013-05-21 11:42:00,77.0,65.0,29.90,West,277,2.0,8.0,67,0.00,,,0.17,,2013-05-21 15:42:00,
2013-05-21 11:52:00,77.0,65.0,29.90,West,277,2.0,8.0,67,0.00,,,0.17,,2013-05-21 15:52:00,
2013-05-21 12:03:00,78.0,66.0,29.90,NW,304,1.0,4.0,66,0.00,,,0.17,,2013-05-21 16:03:00,
2013-05-21 12:13:00,78.0,65.0,29.90,WNW,288,2.0,10.0,64,0.00,,,0.17,,2013-05-21 16:13:00,
2013-05-21 12:23:00,78.0,65.0,29.90,WNW,288,2.0,10.0,64,0.00,,,0.17,,2013-05-21 16:23:00,
2013-05-21 12:32:00,78.0,65.0,29.89,North,354,2.0,8.0,65,0.00,,,0.17,,2013-05-21 16:32:00,
2013-05-21 12:42:00,79.0,66.0,29.88,North,349,2.0,7.0,64,0.00,,,0.17,,2013-05-21 16:42:00,
2013-05-21 12:52:00,79.0,66.0,29.88,North,349,2.0,7.0,64,0.00,,,0.17,,2013-05-21 16:52:00,
2013-05-21 13:02:00,80.0,67.0,29.87,West,276,2.0,5.0,64,0.00,,,0.17,,2013-05-21 17:02:00,
2013-05-21 13:12:00,80.0,67.0,29.87,West,276,2.0,5.0,64,0.00,,,0.17,,2013-05-21 17:12:00,
2013-05-21 13:23:00,81.0,65.0,29.86,WSW,252,1.0,4.0,58,0.00,,,0.17,,2013-05-21 17:23:00,
2013-05-21 13:33:00,81.0,66.0,29.87,WNW,294,2.0,6.0,60,0.00,,,0.17,,2013-05-21 17:33:00,
2013-05-21 13:43:00,81.0,64.0,29.86,WNW,287,3.0,7.0,57,0.00,,,0.17,,2013-05-21 17:43:00,
2013-05-21 13:52:00,81.0,64.0,29.86,WNW,287,3.0,7.0,57,0.00,,,0.17,,2013-05-21 17:52:00,
2013-05-21 14:02:00,81.0,64.0,29.86,WSW,249,2.0,5.0,57,0.00,,,0.17,,2013-05-21 18:02:00,
2013-05-21 14:12:00,81.0,64.0,29.86,WSW,249,2.0,5.0,57,0.00,,,0.17,,2013-05-21 18:12:00,
2013-05-21 14:22:00,82.0,64.0,29.85,WNW,300,1.0,6.0,55,0.00,,,0.17,,2013-05-21 18:22:00,
2013-05-21 14:32:00,83.0,64.0,29.85,SW,235,1.0,6.0,52,0.00,,,0.17,,2013-05-21 18:32:00,
2013-05-21 14:42:00,83.0,64.0,29.85,SW,232,1.0,5.0,52,0.00,,,0.17,,2013-05-21 18:42:00,
2013-05-21 14:52:00,83.0,64.0,29.85,SW,232,1.0,5.0,52,0.00,,,0.17,,2013-05-21 18:52:00,
2013-05-21 15:01:00,84.0,66.0,29.84,NE,55,0.0,4.0,55,0.00,,,0.17,,2013-05-21 19:01:00,
2013-05-21 15:11:00,84.0,66.0,29.84,NE,55,0.0,4.0,55,0.00,,,0.17,,2013-05-21 19:11:00,
2013-05-21 15:21:00,84.0,66.0,29.83,WNW,285,0.0,2.0,55,0.00,,,0.17,,2013-05-21 19:21:00,
2013-05-21 15:32:00,84.0,66.0,29.81,East,96,1.0,5.0,54,0.00,,,0.17,,2013-05-21 19:32:00,
2013-05-21 15:42:00,84.0,66.0,29.81,East,96,1.0,5.0,54,0.00,,,0.17,,2013-05-21 19:42:00,
2013-05-21 15:52:00,85.0,66.0,29.80,ENE,70,0.0,3.0,54,0.00,,,0.17,,2013-05-21 19:52:00,
2013-05-21 16:03:00,86.0,67.0,29.80,NW,307,0.0,4.0,53,0.00,,,0.17,,2013-05-21 20:03:00,
2013-05-21 16:11:00,86.0,67.0,29.80,NW,307,0.0,4.0,53,0.00,,,0.17,,2013-05-21 20:11:00,
2013-05-21 16:22:00,86.0,67.0,29.80,ESE,115,1.0,3.0,53,0.00,,,0.17,,2013-05-21 20:22:00,
2013-05-21 16:32:00,86.0,66.0,29.79,West,277,0.0,5.0,51,0.00,,,0.17,,2013-05-21 20:32:00,
2013-05-21 16:42:00,86.0,66.0,29.79,West,277,0.0,5.0,51,0.00,,,0.17,,2013-05-21 20:42:00,
2013-05-21 16:52:00,86.0,66.0,29.79,WNW,296,0.0,3.0,52,0.00,,,0.17,,2013-05-21 20:52:00,
2013-05-21 17:02:00,86.0,67.0,29.79,WNW,300,0.0,4.0,53,0.00,,,0.17,,2013-05-21 21:02:00,
2013-05-21 17:11:00,86.0,67.0,29.79,WNW,300,0.0,4.0,53,0.00,,,0.17,,2013-05-21 21:11:00,
2013-05-21 17:22:00,86.0,66.0,29.79,ESE,122,0.0,4.0,51,0.00,,,0.17,,2013-05-21 21:22:00,
2013-05-21 17:33:00,84.0,67.0,29.80,ESE,114,0.0,3.0,56,0.00,,,0.17,,2013-05-21 21:33:00,
2013-05-21 17:43:00,82.0,69.0,29.80,NW,313,2.0,9.0,64,0.02,,,0.19,,2013-05-21 21:43:00,
2013-05-21 17:53:00,82.0,69.0,29.80,NW,313,2.0,9.0,64,0.02,,,0.19,,2013-05-21 21:53:00,
2013-05-21 18:02:00,70.0,66.0,29.79,ENE,69,0.0,8.0,86,0.26,,,0.43,,2013-05-21 22:02:00,
2013-05-21 18:12:00,70.0,66.0,29.79,ENE,69,0.0,8.0,86,0.26,,,0.43,,2013-05-21 22:12:00,
2013-05-21 18:23:00,70.0,67.0,29.80,NNW,346,1.0,3.0,90,0.26,,,0.43,,2013-05-21 22:23:00,
2013-05-21 18:33:00,70.0,67.0,29.79,NW,322,1.0,3.0,89,0.26,,,0.43,,2013-05-21 22:33:00,
2013-05-21 18:42:00,70.0,67.0,29.79,NW,322,1.0,3.0,89,0.26,,,0.43,,2013-05-21 22:42:00,
2013-05-21 18:52:00,70.0,66.0,29.78,WNW,298,1.0,3.0,88,0.23,,,0.43,,2013-05-21 22:52:00,
2013-05-21 19:02:00,70.0,66.0,29.78,NW,314,0.0,3.0,88,0.00,,,0.43,,2013-05-21 23:02:00,
2013-05-21 19:12:00,70.0,66.0,29.78,NW,314,0.0,3.0,88,0.00,,,0.43,,2013-05-21 23:12:00,
2013-05-21 19:22:00,70.0,66.0,29.78,West,267,0.0,2.0,88,0.00,,,0.43,,2013-05-21 23:22:00,
2013-05-21 19:32:00,70.0,67.0,29.78,West,271,0.0,1.0,90,0.00,,,0.43,,2013-05-21 23:32:00,
2013-05-21 19:42:00,69.0,66.0,29.78,WNW,300,0.0,2.0,90,0.00,,,0.43,,2013-05-21 23:42:00,
2013-05-21 19:52:00,69.0,66.0,29.78,WNW,300,0.0,2.0,90,0.00,,,0.43,,2013-05-21 23:52:00,
2013-05-21 20:01:00,69.0,66.0,29.78,WNW,285,0.0,0.0,91,0.00,,,0.43,,2013-05-22 00:01:00,
2013-05-21 20:11:00,69.0,66.0,29.78,WNW,285,0.0,0.0,91,0.00,,,0.43,,2013-05-22 00:11:00,
2013-05-21 20:21:00,69.0,66.0,29.79,WNW,288,0.0,2.0,91,0.00,,,0.43,,2013-05-22 00:21:00,
2013-05-21 20:32:00,69.0,67.0,29.79,West,276,0.0,0.0,92,0.00,,,0.43,,2013-05-22 00:32:00,
2013-05-21 20:42:00,69.0,67.0,29.79,West,276,0.0,0.0,92,0.00,,,0.43,,2013-05-22 00:42:00,
2013-05-21 20:51:00,67.0,63.0,29.84,SE,136,6.0,18.0,87,0.04,,,0.47,,2013-05-22 00:51:00,
2013-05-21 21:01:00,63.0,60.0,29.82,ESE,120,2.0,9.0,91,0.35,,,0.78,,2013-05-22 01:01:00,
2013-05-21 21:11:00,63.0,60.0,29.82,ESE,120,2.0,9.0,91,0.35,,,0.78,,2013-05-22 01:11:00,
2013-05-21 21:21:00,64.0,62.0,29.79,ESE,105,1.0,3.0,92,0.38,,,0.81,,2013-05-22 01:21:00,
2013-05-21 21:32:00,63.0,61.0,29.78,West,263,3.0,6.0,93,0.42,,,0.85,,2013-05-22 01:32:00,
2013-05-21 21:42:00,63.0,61.0,29.78,West,273,2.0,4.0,94,0.37,,,0.87,,2013-05-22 01:42:00,
2013-05-21 21:52:00,63.0,61.0,29.78,West,273,2.0,4.0,94,0.37,,,0.87,,2013-05-22 01:52:00,
2013-05-21 22:02:00,63.0,61.0,29.78,West,269,0.0,2.0,94,0.08,,,0.87,,2013-05-22 02:02:00,
2013-05-21 22:12:00,63.0,61.0,29.78,West,269,0.0,2.0,94,0.08,,,0.87,,2013-05-22 02:12:00,
2013-05-21 22:21:00,63.0,61.0,29.78,NNW,335,0.0,3.0,94,0.05,,,0.87,,2013-05-22 02:21:00,
2013-05-21 22:32:00,63.0,62.0,29.79,NW,310,0.0,0.0,95,0.02,,,0.87,,2013-05-22 02:32:00,
2013-05-21 22:42:00,62.0,61.0,29.82,ENE,72,0.0,2.0,95,0.10,,,0.97,,2013-05-22 02:42:00,
2013-05-21 22:52:00,62.0,61.0,29.82,ENE,72,0.0,2.0,95,0.10,,,0.97,,2013-05-22 02:52:00,
2013-05-21 23:01:00,63.0,62.0,29.80,West,276,2.0,3.0,95,0.24,,,1.11,,2013-05-22 03:01:00,
2013-05-21 23:11:00,63.0,62.0,29.80,West,276,2.0,3.0,95,0.24,,,1.11,,2013-05-22 03:11:00,
2013-05-21 23:21:00,63.0,62.0,29.83,ESE,108,0.0,8.0,95,0.39,,,1.26,,2013-05-22 03:21:00,
2013-05-21 23:33:00,63.0,62.0,29.81,East,101,0.0,4.0,95,0.45,,,1.32,,2013-05-22 03:33:00,
2013-05-21 23:43:00,63.0,62.0,29.81,WNW,289,0.0,2.0,95,0.31,,,1.37,,2013-05-22 03:43:00,
2013-05-21 23:53:00,63.0,62.0,29.81,WNW,289,0.0,2.0,95,0.31,,,1.37,,2013-05-22 03:53:00,